Tracking 19709 objects as of 17-Jun-2019
HD Live streaming from Space Station
objects crossing your sky now

GALILEO 20 (2C6)

Track GALILEO 20 (2C6) now!
GALILEO 20 (2C6) is classified as:


NORAD ID: 43056
Int'l Code: 2017-079B
Perigee: 23,219.4 km
Apogee: 23,239.1 km
Inclination: 56.6 °
Period: 844.7 minutes
Semi major axis: 29600 km
RCS: Unknown
Launch date: December 12, 2017
Source: European Space Agency (ESA)
Launch site: FRENCH GUIANA (FRGUI)
aabbcc
Your satellite tracking list
Your tracking list is empty




NASA's NSSDC Master Catalog

Two Line Element Set (TLE):
1 43056U 17079B   19167.21459042 -.00000065  00000-0  00000+0 0  9994
2 43056  56.5616 291.8614 0003327 239.2952 120.6522  1.70474495  9364
Source of the keplerian elements: AFSPC